www.pogodaiklimat.ru

Погода и климат >> Архив погоды >> Таиланд >> Кабинбури


ПОГОДА в Кабинбури

  • Прогноз погоды в Кабинбури
  • Монитор погоды в Кабинбури

АРХИВ ПОГОДЫ в Кабинбури

Время (UTC), дата Ветер
(напр.,м/с)
 
Видим.   Явления Облачность Т
(С)
Тd
(С)
f
(%)
Тe
(С)
Тes
(С)
Комфортность P
(гПа)
Po
(гПа)
Тmin
(С)
Tmax
(С)
R
(мм)
R24
(мм)
S
(см)
00 17.01 штиль 0 6000 м дымка 3/0
[Cs]
+21.3 +19.7 91 +26 +27 душно 1011.3 1009.8 +21.3
03 17.01 В 2 10 км ясно +28.0 +19.7 61 +34 +45 очень
душно
1013.4 1012.0
06 17.01 В 3 11 км 3/3 600 м
[Cu hum]
+32.5 +21.4 52 +40 +49 очень
душно
1011.3 1009.9
09 17.01 В 2 11 км 4/3 600 м
[Cu hum Cs]
+32.6 +20.7 50 +40 +43 очень
душно
1009.2 1007.8
12 17.01 штиль 0 8000 м мгла 3/0
[Cs]
+29.0 +20.9 62 +36 +36 очень
душно
1010.5 1009.1 +33.6
15 17.01 штиль 0 6000 м дымка ясно +25.8 +20.3 72 +32 +32 очень
душно
1012.1 1010.7
18 17.01 штиль 0 6000 м дымка ясно +24.0 +20.9 83 +30 +30 очень
душно
1012.0 1010.6
21 17.01 штиль 0 6000 м дымка ясно +22.3 +20.0 87 +28 +28 душно 1011.8 1010.3
00 18.01 В 3 6000 м дымка 3/0
[Cs]
+22.5 +17.7 74 +28 +28 душно 1012.6 1011.1 +22.3
03 18.01 В 3 11 км 3/0
[Cs]
+26.5 +18.7 62 +31 +40 душно 1014.8 1013.4
06 18.01 В 3 11 км 8/5 600 м
[Sc Ac trans Cs]
+29.6 +20.4 58 +36 +41 очень
душно
1012.4 1010.9
09 18.01 штиль 0 11 км 8/5 600 м
[Sc Ac trans Cs]
+31.4 +20.3 52 +38 +40 очень
душно
1010.3 1008.9
12 18.01 штиль 0 8000 м мгла 8/5 600 м
[Sc Ac trans Cs]
+27.7 +19.7 62 +34 +34 очень
душно
1011.9 1010.5 +31.5
15 18.01 штиль 0 6000 м дымка 6/4 600 м
[Sc Ac trans Cs]
+24.5 +19.9 76 +30 +30 очень
душно
1013.2 1011.7
18 18.01 штиль 0 6000 м дымка 3/0
[Cs]
+24.0 +20.9 83 +30 +30 очень
душно
1012.6 1011.2
21 18.01 штиль 0 6000 м дымка ясно +22.8 +20.3 86 +30 +30 очень
душно
1012.1 1010.6
00 19.01 В 2 8000 м дымка 4/0
[Cs]
+23.1 +18.2 74 +29 +29 очень
душно
1012.8 1011.3 +21.6
03 19.01 В 2 11 км 3/0
[Cs]
+27.5 +19.0 60 +33 +43 очень
душно
1014.3 1012.9
06 19.01 В 2 11 км 1/0
[Cs]
+32.5 +19.6 47 +38 +53 опасность
солнечного
удара
1011.8 1010.4
09 19.01 штиль 0 11 км 1/0
[Cs]
+34.0 +20.6 46 +41 +46 опасность
перегрева
1009.1 1007.7
12 19.01 штиль 0 8000 м дымка 4/0
[Cs]
+30.0 +22.7 65 +40 +40 очень
душно
1010.4 1009.0 +34.5
15 19.01 штиль 0 8000 м дымка 4/0
[Cs]
+26.1 +22.5 81 +34 +34 очень
душно
1012.3 1010.8
18 19.01 штиль 0 6000 м дымка 3/0
[Cs]
+24.5 +21.8 85 +31 +31 очень
душно
1012.3 1010.8
21 19.01 штиль 0 6000 м дымка 3/0
[Cs]
+22.6 +20.8 90 +30 +30 очень
душно
1011.1 1009.7
00 20.01 штиль 0 8000 м дымка 4/0
[Cs]
+22.0 +20.0 88 +28 +28 душно 1012.1 1010.6 +21.8
03 20.01 штиль 0 11 км 3/0
[Cs]
+28.0 +20.4 63 +34 +48 очень
душно
1013.5 1012.1
06 20.01 В 2 11 км 4/3 600 м
[Cu hum Cs]
+34.2 +20.5 45 +41 +51 опасность
перегрева
1011.3 1009.9
09 20.01 штиль 0 11 км 4/3 600 м
[Cu med, cong Cs]
+35.4 +20.7 42 +42 +46 опасность
перегрева
1008.6 1007.2
12 20.01 штиль 0 8000 м дымка 4/0
[Cs]
+30.1 +23.4 67 +41 +41 опасность
перегрева
1009.5 1008.1 +35.5
15 20.01 штиль 0 8000 м дымка 3/0
[Cs]
+26.5 +22.0 76 +34 +34 очень
душно
1011.5 1010.1
18 20.01 штиль 0 6000 м дымка 3/0
[Cs]
+23.8 +21.1 85 +30 +30 очень
душно
1011.7 1010.2
21 20.01 штиль 0 6000 м дымка 3/0
[Cs]
+22.1 +20.2 89 +28 +28 душно 1011.1 1009.7
00 21.01 штиль 0 6000 м дымка 3/0
[Cs]
+21.4 +19.7 90 +26 +27 душно 1012.4 1010.9 +21.3
03 21.01 штиль 0 11 км 1/0
[Ci fib]
+27.4 +20.7 67 +34 +48 очень
душно
1015.1 1013.7
06 21.01 СВ 2 11 км 1/1 600 м
[Cu hum]
+33.5 +20.9 48 +41 +54 опасность
перегрева
1012.2 1010.8
09 21.01 В 2 11 км 3/3 600 м
[Cu hum]
+34.8 +18.6 38 +39 +42 очень
душно
1009.9 1008.6
12 21.01 штиль 0 8000 м мгла 3/0
[Cs]
+29.1 +21.0 62 +37 +37 очень
душно
1010.4 1009.0 +35.4
15 21.01 штиль 0 6000 м дымка ясно +25.5 +20.1 72 +31 +31 очень
душно
1012.8 1011.3
18 21.01 штиль 0 6000 м дымка ясно +23.5 +20.4 83 +29 +29 душно 1012.5 1011.1
21 21.01 штиль 0 6000 м дымка ясно +21.3 +19.1 87 +26 +26 душно 1012.5 1011.0
00 22.01 штиль 0 6000 м дымка 3/0
[Cs]
+19.8 +18.2 90 +22 +23 комфорт 1014.1 1012.6 +19.6
03 22.01 СВ 3 11 км ясно +26.2 +18.7 63 +31 +40 очень
душно
1016.7 1015.2
06 22.01 В 2 11 км 1/1 600 м
[Cu hum]
+32.0 +20.8 52 +39 +53 опасность
солнечного
удара
1013.7 1012.3
09 22.01 штиль 0 11 км 1/1 600 м
[Cu hum]
+33.7 +18.9 42 +39 +44 очень
душно
1010.9 1009.5
12 22.01 штиль 0 8000 м мгла 1/0
[Ci fib]
+28.5 +18.7 55 +34 +34 очень
душно
1011.6 1010.1 +33.8
15 22.01 штиль 0 6000 м дымка ясно +23.8 +19.6 77 +29 +29 душно 1014.6 1013.2
18 22.01 штиль 0 6000 м дымка ясно +21.8 +18.9 84 +27 +27 душно 1013.8 1012.3
21 22.01 штиль 0 6000 м дымка ясно +20.6 +18.2 86 +24 +24 комфорт 1013.4 1012.0
00 23.01 штиль 0 8000 м дымка 3/0
[Cs]
+20.0 +17.4 85 +23 +23 комфорт 1014.9 1013.5 +19.3
03 23.01 штиль 0 10 км 1/0
[Cs]
+26.5 +18.0 60 +31 +45 душно 1016.1 1014.7
06 23.01 штиль 0 11 км 3/1 600 м
[Cu hum Cs]
+31.5 +19.3 48 +37 +54 опасность
солнечного
удара
1013.6 1012.1
09 23.01 В 2 11 км 3/1 600 м
[Cu hum Cs]
+33.5 +19.0 42 +38 +42 очень
душно
1010.7 1009.3
12 23.01 штиль 0 8000 м дымка 3/0
[Cs]
+27.5 +20.5 66 +34 +34 очень
душно
1012.0 1010.6 +33.6
15 23.01 штиль 0 8000 м дымка 3/0
[Cs]
+22.9 +16.5 67 +28 +28 душно 1013.7 1012.3
18 23.01 штиль 0 6000 м дымка 1/0
[Cs]
+20.9 +16.3 75 +24 +24 комфорт 1013.6 1012.2
21 23.01 штиль 0 6000 м дымка 1/0
[Cs]
+17.5 +15.8 90 +17 +17 1012.9 1011.4

 

Местоположение метеостанции Кабинбури (Таиланд): широта 13.98 долгота 101.70 высота над уровнем моря 12 м.

В архиве по умолчанию представлена погода в Кабинбури за последнюю неделю. Архивные данные за месяц целиком и за предыдущие месяцы, начиная с января 2011 года, Вы можете получить, выбрав интересующий диапазон дат из раскрывающегося списка и нажав кнопку "Ввод!".


*Определитесь, кто Вы:
робот инопланетянин человек

Внимание! Время в таблицах - всемирное. Для получения местного времени необходимо прибавить поправку, которая равна 7 ч.

Смотрите также архив погоды в соседних городах и на ближайших метеорологических станциях:

Погода в Прачинбури (Таиланд) (38 км)
Погода в Сракаеве (Таиланд) (42 км)
Погода в Чаченгсау (Таиланд) (60 км)
Погода в Пакчонг Агромете (Таиланд) (83 км)
Погода в Чок Чай (Таиланд) (96 км)
Погода в Араньяпратете (Таиланд) (100 км)
Погода в Чонбури (Таиланд) (103 км)
Погода в Ратбури (Таиланд) (103 км)
Погода в Сарабури (Таиланд) (103 км)
Погода в Аэропорту Суварнабхуми (Таиланд) (107 км)

Пояснения к столбцам:

Ветер - указаны скорость ветра в м/с - средняя за 10 мин, порывы в срок и между сроками (в фигурных скобках) и направление, откуда дует ветер: С - северный, СВ - северо-восточный, В - восточный, ЮВ - юго-восточный, Ю - южный, ЮЗ - юго-западный, З - западный, СЗ - северо-западный.
Видимость - горизонтальная дальность видимости в метрах или километрах. При видимости от 1 до 10 км при отсутствии осадков обычно наблюдается дымка, при ухудшении видимости до 1 км и менее - туман. В сухую погоду видимость может ухудшаться дымом, пылью или мглою.
Явления - указаны атмосферные явления, наблюдавшиеся в срок или в последний час перед сроком; фигурными скобками обозначены явления, наблюдавшиеся между сроками (за 1-3 часа до срока); квадратными скобками обозначены град или гололедные отложения с указанием их диаметра в мм.
Облачность - указаны через наклонную черту общая и нижняя облачность в баллах и высота нижней границы облаков в метрах; квадратными скобками обозначены формы облаков: Ci - перистые, Cs - перисто-слоистые, Cc - перисто-кучевые, Ac - высококучевые, As - высокослоистые, Sc - слоисто-кучевые, Ns - слоисто-дождевые, Cu - кучевые, Cb - кучево-дождевые. Подробнее классификацию облаков см. в Атласе облаков (PDF).
T - Температура воздуха - температура, измеренная на высоте 2 м над землей.
Td - Температура точки росы - температура, при понижении до которой содержащийся в воздухе водяной пар достигнет насыщения.
f - Относительная влажность воздуха - влажноcть воздуха, измеренная на высоте 2 м над землей.
Te - Эффективная температура - температура, которую ощущает одетый по сезону человек в тени. Характеристика душности погоды. При расчете учитывается влияние влажности воздуха и скорости ветра на теплоощущения человека.
Tes - Эффективная температура на солнце - температура, которую ощущает человек, с поправкой на солнечный нагрев. Характеристика знойности погоды. Зависит от высоты солнца над горизонтом, облачности и скорости ветра. Ночью, в пасмурную погоду, а также при ветре 12 м/с и более поправка равна нулю.
P - Атмосферное давление - приведенное к уровню моря атмосферное давление.
Po - Атмосферное давление - измеренное на уровне метеостанции атмосферное давление.
Tmin - Минимальная температура - минимум температуры воздуха на высоте 2 м над землей.
Tmax - Максимальная температура - максимум температуры воздуха на высоте 2 м над землей.
R - Количество осадков - Количество выпавших осадков за период времени, мм. При наведении курсора мыши на число - период времени, за который выпало указанное количество осадков.
R24 - Количество осадков - Количество выпавших осадков за 24 часа, мм.
S - Снежный покров - Высота снежного покрова, см. При наведении курсора мыши на число - состояние снежного покрова и степень покрытия местности в баллах.